KLRIVER36 Weather Reports


time (UTC)temp
C
wind
direction
speed
KPH
gust
KPH
rain 1hr
cm
rain 24hr
cm
rain mn
cm
humidity
%
barometer
mb
20260510231054 27 0 0.0 4.8 0.00 0.18 0.00 67 1015.6
20260510230554 27 0 0.0 4.8 0.00 0.18 0.00 66 1015.6
20260510230056 27 127 1.6 6.4 0.00 0.18 0.00 65 1015.6
20260510225556 27 23 3.2 6.4 0.00 0.25 0.00 66 1015.6
20260510225053 28 82 0.0 4.8 0.00 0.25 0.00 64 1015.5
20260510224555 28 125 0.0 8.0 0.00 0.25 0.00 65 1015.6
20260510224053 28 71 1.6 6.4 0.00 0.25 0.00 63 1015.6
20260510223556 27 32 1.6 4.8 0.00 0.25 0.00 61 1015.6
20260510223054 27 73 0.0 3.2 0.00 0.25 0.00 62 1015.6
20260510222553 27 109 0.0 6.4 0.00 0.25 0.00 65 1015.6
20260510222052 27 105 1.6 6.4 0.00 0.25 0.00 63 1015.6
20260510221557 28 61 1.6 6.4 0.00 0.25 0.00 63 1015.4
20260510221054 28 0 1.6 6.4 0.00 0.25 0.00 67 1015.4
20260510220554 28 74 1.6 4.8 0.00 0.25 0.00 67 1015.5
20260510220058 28 101 1.6 4.8 0.00 0.25 0.00 65 1015.4
20260510215556 28 98 0.0 4.8 0.00 0.30 0.00 65 1015.5
20260510215057 28 78 1.6 4.8 0.00 0.30 0.00 64 1015.6
20260510214556 28 171 1.6 4.8 0.00 0.30 0.00 64 1015.6
20260510214053 28 85 1.6 3.2 0.00 0.30 0.00 63 1015.5
20260510213553 28 139 0.0 6.4 0.00 0.30 0.00 64 1015.5
20260510213054 28 150 1.6 6.4 0.00 0.30 0.00 64 1015.5
20260510212554 28 0 0.0 6.4 0.00 0.30 0.00 65 1015.4
20260510212054 28 90 1.6 6.4 0.00 0.30 0.00 64 1015.4
20260510211557 28 68 1.6 6.4 0.00 0.30 0.00 65 1015.4
20260510211057 28 346 1.6 6.4 0.00 0.30 0.00 66 1015.5
20260510210553 28 156 1.6 4.8 0.00 0.30 0.00 68 1015.6
20260510210110 28 78 1.6 3.2 0.00 0.30 0.00 65 1015.6
20260510205556 28 149 0.0 6.4 0.00 0.30 0.00 65 1015.7
20260510205054 28 96 1.6 6.4 0.00 0.30 0.00 68 1015.8
20260510204604 28 0 1.6 6.4 0.00 0.30 0.00 68 1015.6
20260510204057 28 103 3.2 8.0 0.00 0.30 0.00 67 1015.4
20260510203553 28 1 1.6 8.0 0.00 0.30 0.00 68 1015.6
20260510203053 28 75 1.6 6.4 0.00 0.30 0.00 67 1015.7
20260510202554 28 120 1.6 4.8 0.00 0.30 0.00 66 1015.6
20260510202054 28 39 1.6 4.8 0.00 0.30 0.00 69 1015.6
20260510201553 28 15 1.6 8.0 0.00 0.30 0.00 68 1015.4
20260510201053 28 82 3.2 11.3 0.00 0.30 0.00 67 1015.5
20260510200553 28 44 3.2 11.3 0.00 0.30 0.00 67 1015.5
20260510200055 28 110 1.6 6.4 0.00 0.30 0.00 68 1015.4
20260510195554 28 127 1.6 4.8 0.00 0.56 0.00 69 1015.5
20260510195059 28 112 1.6 11.3 0.00 0.56 0.00 69 1015.5
20260510194554 28 94 1.6 11.3 0.00 0.56 0.00 70 1015.6
20260510194057 28 115 3.2 11.3 0.00 0.56 0.00 69 1015.6
20260510193556 28 77 1.6 8.0 0.00 0.56 0.00 70 1015.6
20260510193107 28 117 1.6 4.8 0.00 0.56 0.00 71 1015.7
20260510192553 28 64 1.6 6.4 0.00 0.56 0.00 72 1015.6
20260510192055 27 162 1.6 6.4 0.00 0.56 0.00 73 1015.7
20260510191559 27 155 1.6 4.8 0.00 0.56 0.00 74 1015.7
20260510191056 27 122 1.6 4.8 0.00 0.56 0.00 74 1015.7
20260510190555 27 0 1.6 4.8 0.00 0.56 0.00 74 1015.7
20260510190057 27 103 1.6 6.4 0.00 0.56 0.00 72 1015.7
20260510185554 28 0 1.6 6.4 0.00 0.79 0.00 72 1015.6
20260510185053 29 38 1.6 6.4 0.00 0.79 0.00 69 1015.6
20260510184555 28 122 1.6 8.0 0.00 0.79 0.00 71 1015.5
20260510184054 28 145 1.6 8.0 0.00 0.79 0.00 68 1015.7
20260510183554 28 69 1.6 8.0 0.00 0.79 0.00 68 1015.6
20260510183056 28 115 1.6 9.7 0.00 0.79 0.00 71 1015.7
20260510182556 28 144 1.6 9.7 0.00 0.79 0.00 70 1016.0
20260510182057 28 106 1.6 9.7 0.00 0.79 0.00 68 1015.9
20260510181559 28 89 0.0 9.7 0.00 0.79 0.00 71 1016.2
20260510181054 28 131 1.6 6.4 0.00 0.79 0.00 67 1016.2
20260510180555 28 82 1.6 4.8 0.00 0.79 0.00 69 1016.3
20260510180059 28 74 1.6 4.8 0.00 0.79 0.00 71 1016.3
20260510175554 27 69 1.6 4.8 0.00 1.47 0.00 73 1016.5
20260510175057 27 99 0.0 4.8 0.00 1.47 0.00 73 1016.5
20260510174554 27 1 0.0 4.8 0.00 1.47 0.00 73 1016.6
20260510174055 27 79 1.6 6.4 0.00 1.47 0.00 71 1016.6
20260510173555 28 359 1.6 6.4 0.00 1.47 0.00 70 1016.6
20260510173053 28 41 1.6 6.4 0.00 1.47 0.00 71 1016.7
20260510172556 28 15 0.0 6.4 0.00 1.47 0.00 71 1016.6
20260510172054 28 54 0.0 4.8 0.00 1.47 0.00 72 1016.7
20260510171559 27 175 1.6 6.4 0.00 1.47 0.00 74 1016.7
20260510171053 27 95 1.6 6.4 0.00 1.47 0.00 72 1016.9
20260510170553 27 146 3.2 8.0 0.00 1.47 0.00 73 1016.9
20260510170111 27 158 1.6 8.0 0.00 1.47 0.00 73 1016.9
20260510165554 27 67 3.2 8.0 0.00 2.54 0.00 73 1017.0
20260510165054 27 26 1.6 6.4 0.00 2.54 0.00 73 1016.9
20260510164602 27 120 0.0 8.0 0.00 2.54 0.00 76 1017.0
20260510164056 26 0 1.6 8.0 0.00 2.54 0.00 76 1016.9
20260510163554 27 94 1.6 4.8 0.00 2.54 0.00 73 1017.0
20260510163056 27 0 0.0 4.8 0.00 2.54 0.00 76 1016.9
20260510162555 27 65 1.6 4.8 0.00 2.54 0.00 77 1016.8
20260510162054 26 1 1.6 4.8 0.00 2.54 0.00 78 1016.9
20260510161558 26 29 1.6 6.4 0.00 2.54 0.00 76 1017.1
20260510161056 27 86 1.6 6.4 0.00 2.54 0.00 78 1017.1
20260510160554 27 53 1.6 6.4 0.00 2.54 0.00 77 1017.0
20260510160109 26 1 1.6 4.8 0.00 2.54 0.00 77 1016.9
20260510155553 26 1 1.6 4.8 0.00 3.28 0.00 76 1016.8
20260510155057 26 132 1.6 6.4 0.00 3.28 0.00 75 1016.7
20260510154617 26 86 3.2 6.4 0.00 3.28 0.00 76 1016.6
20260510154054 26 86 1.6 4.8 0.00 3.28 0.00 78 1016.6
20260510153554 26 359 1.6 4.8 0.00 3.28 0.00 80 1016.5
20260510152553 26 55 1.6 6.4 0.00 3.28 0.00 79 1016.5
20260510152056 25 359 1.6 6.4 0.00 3.28 0.00 80 1016.5
20260510151555 25 8 1.6 3.2 0.00 3.28 0.00 81 1016.8
20260510151053 25 94 1.6 8.0 0.00 3.28 0.00 82 1017.0
20260510150554 24 75 0.0 8.0 0.00 3.28 0.00 85 1016.8
20260510145554 23 11 3.2 8.0 0.00 3.43 0.00 86 1017.0
20260510145054 23 1 0.0 3.2 0.00 3.43 0.00 90 1017.1
20260510144610 23 0 0.0 6.4 0.00 3.43 0.00 90 1017.1
20260510144054 23 8 1.6 9.7 0.00 3.43 0.00 90 1017.1
20260510143554 22 1 1.6 9.7 0.00 3.43 0.00 90 1017.0
20260510143059 22 1 1.6 6.4 0.00 3.43 0.00 92 1017.0
20260510142553 22 10 1.6 6.4 0.00 3.43 0.00 92 1016.9
20260510142053 22 2 1.6 8.0 0.00 3.43 0.00 92 1016.9
20260510141558 22 37 0.0 8.0 0.00 3.43 0.00 93 1016.9
20260510141053 22 0 1.6 8.0 0.00 3.43 0.00 93 1016.8
20260510140559 21 1 1.6 8.0 0.00 3.43 0.00 93 1016.8
20260510140054 21 0 1.6 6.4 0.00 3.43 0.00 94 1016.7
20260510135554 21 0 1.6 6.4 0.00 5.03 0.00 94 1016.7
20260510135054 21 0 0.0 6.4 0.00 5.03 0.00 94 1016.8
20260510134557 21 0 1.6 6.4 0.00 5.03 0.00 94 1016.8
20260510134057 21 1 0.0 4.8 0.00 5.03 0.00 94 1016.7
20260510133555 21 0 0.0 4.8 0.00 5.03 0.00 94 1016.8
20260510133058 21 21 1.6 4.8 0.00 5.03 0.00 94 1016.8
20260510132552 21 359 0.0 4.8 0.00 5.03 0.00 95 1016.8
20260510132055 21 9 0.0 4.8 0.00 5.03 0.00 95 1016.6
20260510131603 21 360 1.6 4.8 0.00 5.03 0.00 95 1016.4
20260510131055 20 360 0.0 4.8 0.00 5.03 0.00 95 1016.4
20260510130559 20 0 0.0 4.8 0.00 5.03 0.00 95 1016.4
20260510130056 20 0 1.6 4.8 0.00 5.03 0.00 95 1016.2
20260510125554 20 42 3.2 4.8 0.00 5.03 0.00 95 1016.1
20260510125054 20 1 1.6 4.8 0.00 5.03 0.00 95 1016.0
20260510124612 20 1 1.6 4.8 0.00 5.03 0.00 95 1015.9
20260510124056 20 25 1.6 3.2 0.00 5.03 0.00 95 1015.7
20260510123552 20 25 0.0 3.2 0.00 5.03 0.00 95 1015.5
20260510123110 20 0 0.0 3.2 0.00 5.03 0.00 95 1015.4
20260510122552 20 0 0.0 3.2 0.00 5.03 0.00 95 1015.4
20260510122052 20 0 0.0 3.2 0.00 5.03 0.00 95 1015.4
20260510121559 20 0 0.0 0.0 0.00 5.03 0.00 95 1015.5
20260510121052 20 0 0.0 0.0 0.00 5.03 0.00 95 1015.4
20260510120554 20 0 0.0 3.2 0.00 5.03 0.00 95 1015.4
20260510120055 20 0 0.0 3.2 0.00 5.03 0.00 95 1015.5
20260510115554 20 0 0.0 3.2 0.00 5.03 0.00 95 1015.3
20260510115054 19 0 0.0 3.2 0.00 5.03 0.00 95 1015.3
20260510114605 19 2 0.0 3.2 0.00 5.03 0.00 94 1015.2
20260510114054 19 0 0.0 1.6 0.00 5.03 0.00 94 1015.1
20260510113554 19 0 0.0 3.2 0.00 5.03 0.00 94 1015.0
20260510113102 19 0 0.0 3.2 0.00 5.03 0.00 94 1014.7
20260510112552 19 101 0.0 3.2 0.00 5.03 0.00 94 1014.7
20260510112052 19 0 0.0 3.2 0.00 5.03 0.00 94 1014.7
20260510111614 20 39 0.0 3.2 0.00 5.03 0.00 94 1014.6
20260510111055 19 0 0.0 3.2 0.00 5.03 0.00 94 1014.5
20260510110552 19 0 0.0 1.6 0.00 5.03 0.00 94 1014.4
20260510110055 19 0 0.0 1.6 0.00 5.03 0.00 94 1014.3
20260510105552 19 0 0.0 1.6 0.00 5.03 0.00 94 1014.3
20260510105052 19 0 0.0 0.0 0.00 5.03 0.00 94 1014.2
20260510104604 19 0 0.0 3.2 0.00 5.03 0.00 94 1014.1
20260510104051 19 0 0.0 3.2 0.00 5.03 0.00 94 1013.9
20260510103553 19 0 0.0 1.6 0.00 5.03 0.00 94 1013.9
20260510103056 19 0 0.0 1.6 0.00 5.03 0.00 94 1013.8
20260510102555 19 0 0.0 3.2 0.00 5.03 0.00 94 1013.5
20260510102054 19 0 0.0 3.2 0.00 5.03 0.00 94 1013.7
20260510101555 19 0 0.0 3.2 0.00 5.03 0.00 94 1013.6
20260510101054 19 0 0.0 3.2 0.00 5.03 0.00 94 1013.6
20260510100558 19 0 0.0 3.2 0.00 5.03 0.00 94 1013.5
20260510100059 19 0 0.0 3.2 0.00 5.03 0.00 94 1013.4
20260510095554 19 0 0.0 3.2 0.00 5.03 0.00 94 1013.4
20260510095058 19 0 0.0 3.2 0.00 5.03 0.00 94 1013.4
20260510094551 19 1 0.0 0.0 0.00 5.03 0.00 94 1013.4
20260510094054 19 0 0.0 1.6 0.00 5.03 0.00 94 1013.5
20260510093554 19 0 0.0 1.6 0.00 5.03 0.00 94 1013.5
20260510093055 19 0 0.0 0.0 0.00 5.03 0.00 94 1013.5
20260510092554 19 0 0.0 1.6 0.00 5.03 0.00 94 1013.4
20260510092053 19 0 0.0 6.4 0.00 5.03 0.00 94 1013.3
20260510091559 19 1 1.6 6.4 0.00 5.03 0.00 94 1013.3
20260510091053 19 1 1.6 3.2 0.00 5.03 0.00 94 1013.1
20260510090555 19 19 1.6 3.2 0.00 5.03 0.00 94 1013.1
20260510090104 19 360 0.0 3.2 0.00 5.03 0.00 94 1013.1
20260510085557 19 1 0.0 3.2 0.00 5.03 0.00 94 1013.2
20260510085054 18 0 0.0 1.6 0.00 5.03 0.00 94 1013.2
20260510084559 18 0 0.0 3.2 0.00 5.03 0.00 94 1013.2
20260510084054 18 2 0.0 3.2 0.00 5.03 0.00 94 1013.2
20260510083554 18 2 0.0 0.0 0.00 5.03 0.00 94 1013.2
20260510083054 18 0 0.0 0.0 0.00 5.03 0.00 94 1013.2
20260510082553 18 0 0.0 0.0 0.00 5.03 0.00 94 1013.3
20260510082054 18 0 0.0 0.0 0.00 5.03 0.00 94 1013.2
20260510081600 18 0 0.0 0.0 0.00 5.03 0.00 94 1013.1
20260510081054 18 0 0.0 0.0 0.00 5.03 0.00 94 1013.0
20260510080554 18 0 0.0 0.0 0.00 5.03 0.00 94 1012.9
20260510075557 18 0 0.0 0.0 0.00 5.03 0.00 94 1012.9
20260510075058 18 0 0.0 0.0 0.00 5.03 0.00 94 1012.9
20260510074553 18 0 0.0 0.0 0.00 5.03 0.00 94 1012.9
20260510074055 18 0 0.0 0.0 0.00 5.03 0.00 94 1012.9
20260510073554 18 0 0.0 0.0 0.00 5.03 0.00 94 1012.9
20260510073055 18 0 0.0 0.0 0.00 5.03 0.00 94 1012.8
20260510072556 18 0 0.0 0.0 0.00 5.03 0.00 94 1012.6
20260510072053 18 0 0.0 0.0 0.00 5.03 0.00 94 1012.6
20260510071555 18 0 0.0 3.2 0.00 5.03 0.00 94 1012.5
20260510071054 18 0 0.0 3.2 0.00 5.03 0.00 94 1012.5
20260510070556 18 0 0.0 3.2 0.00 5.03 0.00 94 1012.6
20260510070106 18 2 0.0 3.2 0.00 5.03 0.00 94 1012.8
20260510065556 18 2 0.0 3.2 0.00 5.03 0.00 94 1012.8
20260510065055 18 0 0.0 0.0 0.00 5.03 0.00 94 1012.7
20260510064608 18 0 0.0 0.0 0.00 5.03 0.00 94 1012.7
20260510064055 18 0 0.0 0.0 0.00 5.03 0.00 94 1012.8
20260510063555 18 0 0.0 0.0 0.00 5.03 0.00 94 1012.8
20260510063055 18 0 0.0 4.8 0.00 5.03 0.00 94 1012.7
20260510062558 19 0 0.0 4.8 0.00 5.03 0.00 94 1012.6
20260510062052 19 1 1.6 3.2 0.00 5.03 0.00 94 1012.7
20260510061554 18 32 0.0 3.2 0.00 5.03 0.00 94 1012.7
20260510061102 18 27 0.0 3.2 0.00 5.03 0.00 94 1012.8
20260510060557 18 0 0.0 0.0 0.00 5.03 0.00 94 1012.7
20260510060056 18 0 0.0 0.0 0.00 5.03 0.00 94 1012.8
20260510055554 19 0 0.0 0.0 0.00 5.03 0.00 94 1012.8
20260510055055 19 0 0.0 0.0 0.00 5.03 0.00 93 1012.8
20260510054600 19 0 0.0 0.0 0.00 5.03 0.00 94 1012.9
20260510054055 19 0 0.0 3.2 0.00 5.03 0.00 93 1012.7
20260510053555 19 0 0.0 3.2 0.00 5.03 0.00 93 1012.7
20260510053057 19 0 0.0 0.0 0.00 5.03 0.00 94 1012.5
20260510052556 19 0 0.0 0.0 0.00 5.03 0.00 93 1012.5
20260510052055 19 0 0.0 1.6 0.00 5.03 0.00 94 1012.6
20260510051608 20 0 0.0 3.2 0.00 5.03 0.00 93 1012.7
20260510051604 20 0 0.0 3.2 0.00 5.03 0.00 94 1012.5
20260510050555 20 0 0.0 3.2 0.00 5.03 0.00 94 1012.6
20260510045552 20 0 0.0 0.0 0.00 5.03 5.03 94 1012.8
20260510045052 20 0 0.0 0.0 0.00 5.03 5.03 94 1012.8
20260510044602 20 0 0.0 0.0 0.00 5.03 5.03 94 1012.7
20260510044053 20 0 0.0 0.0 0.00 5.03 5.03 94 1012.8
20260510043553 20 0 0.0 0.0 0.00 5.03 5.03 94 1013.0
20260510043051 20 0 0.0 3.2 0.00 5.03 5.03 93 1013.0
20260510042552 20 0 0.0 3.2 0.00 5.03 5.03 94 1013.1
20260510042052 20 0 0.0 3.2 0.00 5.03 5.03 94 1013.0
20260510041606 20 0 0.0 3.2 0.00 5.03 5.03 94 1012.8
20260510041052 20 0 0.0 3.2 0.00 5.03 5.03 94 1012.7
20260510040552 20 164 0.0 3.2 0.00 5.03 5.03 94 1012.6
20260510040054 20 110 0.0 3.2 0.00 5.03 5.03 94 1012.7
20260510035552 20 0 0.0 3.2 0.00 5.03 5.03 94 1012.7
20260510035052 20 0 0.0 1.6 0.00 5.03 5.03 94 1013.0
20260510034602 19 0 0.0 1.6 0.00 5.03 5.03 94 1013.2
20260510034054 19 0 0.0 0.0 0.00 5.03 5.03 93 1013.3
20260510033554 19 0 0.0 3.2 0.00 5.03 5.03 93 1013.5
20260510033057 19 0 0.0 3.2 0.00 5.03 5.03 93 1013.7
20260510032552 19 0 0.0 3.2 0.00 5.03 5.03 94 1013.8
20260510032053 19 0 0.0 3.2 0.00 5.03 5.03 94 1013.7
20260510031604 19 0 0.0 0.0 0.00 5.03 5.03 93 1013.7
20260510031053 19 0 0.0 0.0 0.00 5.03 5.03 93 1013.7
20260510030554 19 0 0.0 0.0 0.00 5.03 5.03 93 1013.8
20260510030104 19 0 0.0 0.0 0.00 5.03 5.03 93 1013.8
20260510025552 19 0 0.0 0.0 0.00 5.03 5.03 93 1013.7
20260510025055 19 0 0.0 3.2 0.00 5.03 5.03 93 1013.7
20260510024555 19 0 0.0 3.2 0.00 5.03 5.03 93 1013.7
20260510024052 19 0 0.0 1.6 0.00 5.03 5.03 93 1013.8
20260510023556 19 0 0.0 0.0 0.00 5.03 5.03 93 1013.8
20260510023055 19 0 0.0 0.0 0.00 5.03 5.03 93 1013.6
20260510022557 19 0 0.0 0.0 0.00 5.03 5.03 93 1013.4
20260510022056 19 0 0.0 0.0 0.00 5.03 5.03 93 1013.4
20260510021551 19 0 0.0 0.0 0.00 5.03 5.03 93 1013.2
20260510021052 19 0 0.0 0.0 0.00 5.03 5.03 93 1013.2
20260510020552 20 0 0.0 0.0 0.00 5.03 5.03 93 1013.4
20260510020054 20 0 0.0 0.0 0.00 5.03 5.03 93 1013.3
20260510015553 20 0 0.0 0.0 0.00 5.03 5.03 93 1013.1
20260510015052 20 0 0.0 3.2 0.00 5.03 5.03 93 1013.1
20260510014600 20 0 0.0 3.2 0.03 5.03 5.03 93 1013.0
20260510014052 20 0 0.0 0.0 0.03 5.03 5.03 93 1013.0
20260510013551 20 0 0.0 1.6 0.03 5.03 5.03 93 1013.0
20260510013058 20 0 0.0 3.2 0.05 5.03 5.03 93 1012.8
20260510012553 20 0 0.0 3.2 0.05 5.03 5.03 93 1012.8
20260510012053 20 0 0.0 3.2 0.05 5.03 5.03 93 1012.7
20260510011552 20 0 0.0 3.2 0.05 5.03 5.03 93 1012.8
20260510011053 20 0 0.0 3.2 0.05 5.03 5.03 93 1012.7
20260510010552 20 0 0.0 3.2 0.05 5.03 5.03 93 1012.7
20260510010054 20 0 0.0 3.2 0.05 5.03 5.03 93 1012.7
20260510005552 20 0 0.0 3.2 0.05 5.03 5.03 93 1012.8
20260510005056 20 0 0.0 3.2 0.05 5.03 5.03 93 1012.8
20260510004553 20 0 0.0 3.2 0.03 5.00 5.00 93 1012.8
20260510004052 20 0 0.0 3.2 0.03 5.00 5.00 93 1012.9
20260510003556 20 0 0.0 3.2 0.03 5.00 5.00 93 1012.6
20260510003058 20 0 0.0 0.0 0.00 4.98 4.98 93 1012.8
20260510002557 20 0 0.0 0.0 0.03 4.98 4.98 93 1012.7
20260510002052 20 0 0.0 0.0 0.03 4.98 4.98 93 1012.7
20260510001554 20 0 0.0 0.0 0.05 4.98 4.98 93 1012.7
20260510001053 20 0 0.0 1.6 0.08 4.98 4.98 93 1012.7
20260510000557 20 0 0.0 1.6 0.08 4.98 4.98 93 1012.6
20260509235555 20 0 0.0 0.0 0.15 4.98 4.98 93 1012.7
20260509235052 20 0 0.0 1.6 0.18 4.98 4.98 93 1012.8
20260509234604 20 0 0.0 3.2 0.20 4.98 4.98 93 1012.9
20260509234056 20 0 0.0 3.2 0.20 4.98 4.98 93 1012.7
20260509233555 20 0 0.0 3.2 0.20 4.98 4.98 93 1012.7
20260509233059 20 0 0.0 3.2 0.20 4.98 4.98 93 1012.6
20260509232555 20 0 0.0 3.2 0.18 4.95 4.95 93 1012.7
20260509232054 20 0 0.0 3.2 0.18 4.95 4.95 93 1012.7
20260509231610 20 0 0.0 1.6 0.15 4.93 4.93 93 1012.9